Back to Top

Language: 

My Weather Underground Personal Weather Station Historical Data with Graphs...

Delerius Weather Station Historical Data
Daily Summary for March 18, 2017 Units:  Metric    English   Both
« Previous Day
Next Day »
Daily Weekly Monthly Yearly Custom
  High: Low: Average:
Temperature: 13.1 °C 11.1 °C 11.8 °C
Dew Point: 10.9 °C 9.1 °C 9.9 °C
Humidity: 93 % 82 % 88 %
Wind Speed: 33.8 km/h 3.2 km/h 17.7 km/h
Wind Gust: 54.7 km/h - -
Wind:- - WNW
Pressure: 1007.7 hPa 1001.2 hPa -
Precipitation: 0.51 mm    
Historical Graphs
 
 
Tabular Data for March 18, 2017
Time Temperature Dew Point Pressure Wind Wind Speed Wind Gust Humidity Rainfall Rate (Hourly) solar Conditions
00:04 11.3 °C 9.2 °C 1001.2 hPa WNW 25.7 km/h 49.9 km/h 87 % 0 mm 0 W/m2
00:09 11.3 °C 9.2 °C 1001.2 hPa WNW 24.1 km/h 46.7 km/h 87 % 0 mm 0 W/m2
00:14 11.3 °C 9.4 °C 1001.6 hPa WNW 25.7 km/h 46.7 km/h 88 % 0 mm 0 W/m2
00:20 11.3 °C 9.4 °C 1001.6 hPa WNW 25.7 km/h 46.7 km/h 88 % 0 mm 0 W/m2
00:25 11.2 °C 9.3 °C 1001.6 hPa WNW 27.4 km/h 54.7 km/h 88 % 0 mm 0 W/m2
00:30 11.2 °C 9.3 °C 1001.2 hPa WNW 30.6 km/h 54.7 km/h 88 % 0 mm 0 W/m2
00:35 11.2 °C 9.4 °C 1001.6 hPa WNW 30.6 km/h 49.9 km/h 89 % 0 mm 0 W/m2
00:40 11.1 °C 9.3 °C 1001.6 hPa WNW 32.2 km/h 49.9 km/h 89 % 0 mm 0 W/m2
00:45 11.1 °C 9.3 °C 1001.6 hPa WNW 33.8 km/h 54.7 km/h 89 % 0 mm 0 W/m2
00:50 11.1 °C 9.3 °C 1001.2 hPa WNW 33.8 km/h 54.7 km/h 89 % 0 mm 0 W/m2
00:55 11.1 °C 9.3 °C 1001.2 hPa West 32.2 km/h 46.7 km/h 89 % 0 mm 0 W/m2
01:00 11.1 °C 9.3 °C 1001.2 hPa West 29 km/h 45.1 km/h 89 % 0 mm 0 W/m2
01:05 11.1 °C 9.5 °C 1001.2 hPa West 25.7 km/h 40.2 km/h 90 % 0 mm 0 W/m2
01:10 11.1 °C 9.3 °C 1001.2 hPa WNW 25.7 km/h 41.8 km/h 89 % 0 mm 0 W/m2
01:15 11.1 °C 9.3 °C 1001.6 hPa West 25.7 km/h 41.8 km/h 89 % 0 mm 0 W/m2
01:20 11.1 °C 9.3 °C 1001.6 hPa West 25.7 km/h 48.3 km/h 89 % 0 mm 0 W/m2
01:25 11.2 °C 9.4 °C 1001.6 hPa WNW 25.7 km/h 48.3 km/h 89 % 0 mm 0 W/m2
01:30 11.2 °C 9.3 °C 1001.6 hPa WNW 27.4 km/h 48.3 km/h 88 % 0 mm 0 W/m2
01:35 11.3 °C 9.4 °C 1001.6 hPa WNW 29 km/h 48.3 km/h 88 % 0 mm 0 W/m2
01:40 11.3 °C 9.4 °C 1001.6 hPa WNW 27.4 km/h 43.5 km/h 88 % 0 mm 0 W/m2
01:50 11.3 °C 9.2 °C 1001.6 hPa West 29 km/h 51.5 km/h 87 % 0 mm 0 W/m2
01:55 11.4 °C 9.3 °C 1001.6 hPa WNW 30.6 km/h 46.7 km/h 87 % 0 mm 0 W/m2
02:00 11.4 °C 9.3 °C 1001.6 hPa WNW 29 km/h 46.7 km/h 87 % 0 mm 0 W/m2
02:05 11.4 °C 9.3 °C 1001.9 hPa WNW 27.4 km/h 49.9 km/h 87 % 0 mm 0 W/m2
02:10 11.4 °C 9.3 °C 1001.9 hPa WNW 30.6 km/h 49.9 km/h 87 % 0 mm 0 W/m2
02:15 11.4 °C 9.3 °C 1001.9 hPa WNW 30.6 km/h 49.9 km/h 87 % 0 mm 0 W/m2
02:20 11.4 °C 9.3 °C 1002.3 hPa WNW 27.4 km/h 49.9 km/h 87 % 0 mm 0 W/m2
02:25 11.4 °C 9.3 °C 1001.9 hPa WNW 27.4 km/h 45.1 km/h 87 % 0 mm 0 W/m2
02:30 11.4 °C 9.3 °C 1001.9 hPa WNW 27.4 km/h 45.1 km/h 87 % 0 mm 0 W/m2
02:35 11.3 °C 9.2 °C 1002.3 hPa WNW 25.7 km/h 40.2 km/h 87 % 0 mm 0 W/m2
02:40 11.3 °C 9.2 °C 1002.3 hPa WNW 25.7 km/h 41.8 km/h 87 % 0 mm 0 W/m2
02:45 11.3 °C 9.2 °C 1002.3 hPa WNW 24.1 km/h 41.8 km/h 87 % 0 mm 0 W/m2
02:50 11.3 °C 9.2 °C 1002.3 hPa WNW 27.4 km/h 45.1 km/h 87 % 0 mm 0 W/m2
02:55 11.3 °C 9.2 °C 1002.3 hPa WNW 27.4 km/h 45.1 km/h 87 % 0 mm 0 W/m2
03:00 11.3 °C 9.2 °C 1002.3 hPa WNW 24.1 km/h 43.5 km/h 87 % 0 mm 0 W/m2
03:05 11.3 °C 9.2 °C 1002.3 hPa WNW 24.1 km/h 43.5 km/h 87 % 0 mm 0 W/m2
03:10 11.2 °C 9.3 °C 1002.3 hPa WNW 24.1 km/h 46.7 km/h 88 % 0 mm 0 W/m2
03:15 11.2 °C 9.3 °C 1001.9 hPa WNW 24.1 km/h 46.7 km/h 88 % 0 mm 0 W/m2
03:20 11.2 °C 9.3 °C 1002.3 hPa WNW 24.1 km/h 41.8 km/h 88 % 0 mm 0 W/m2
03:25 11.2 °C 9.3 °C 1002.3 hPa WNW 24.1 km/h 41.8 km/h 88 % 0 mm 0 W/m2
03:30 11.2 °C 9.3 °C 1002.3 hPa WNW 25.7 km/h 41.8 km/h 88 % 0 mm 0 W/m2
03:35 11.2 °C 9.3 °C 1002.6 hPa WNW 24.1 km/h 45.1 km/h 88 % 0 mm 0 W/m2
03:40 11.3 °C 9.4 °C 1002.6 hPa WNW 22.5 km/h 45.1 km/h 88 % 0 mm 0 W/m2
03:50 11.3 °C 9.4 °C 1002.9 hPa WNW 20.9 km/h 40.2 km/h 88 % 0 mm 0 W/m2
03:55 11.3 °C 9.4 °C 1002.9 hPa WNW 19.3 km/h 35.4 km/h 88 % 0 mm 0 W/m2
04:00 11.2 °C 9.3 °C 1002.9 hPa WNW 19.3 km/h 46.7 km/h 88 % 0 mm 0 W/m2
04:05 11.2 °C 9.3 °C 1003.3 hPa WNW 20.9 km/h 46.7 km/h 88 % 0 mm 0 W/m2
04:10 11.2 °C 9.4 °C 1003.3 hPa WNW 19.3 km/h 35.4 km/h 89 % 0 mm 0 W/m2
04:15 11.2 °C 9.4 °C 1003.3 hPa WNW 20.9 km/h 37 km/h 89 % 0 mm 0 W/m2
04:20 11.2 °C 9.4 °C 1003.3 hPa WNW 20.9 km/h 37 km/h 89 % 0 mm 0 W/m2
04:25 11.2 °C 9.4 °C 1003.3 hPa WNW 19.3 km/h 35.4 km/h 89 % 0 mm 0 W/m2
04:30 11.2 °C 9.4 °C 1003.3 hPa WNW 17.7 km/h 32.2 km/h 89 % 0 mm 0 W/m2
04:35 11.2 °C 9.3 °C 1003.6 hPa WNW 17.7 km/h 37 km/h 88 % 0 mm 0 W/m2
04:40 11.2 °C 9.3 °C 1003.6 hPa WNW 19.3 km/h 37 km/h 88 % 0 mm 0 W/m2
04:45 11.2 °C 9.3 °C 1003.6 hPa WNW 19.3 km/h 35.4 km/h 88 % 0 mm 0 W/m2
04:50 11.2 °C 9.3 °C 1003.6 hPa WNW 20.9 km/h 38.6 km/h 88 % 0 mm 0 W/m2
04:52 11.2 °C 9.3 °C 1003.6 hPa WNW 20.9 km/h 38.6 km/h 88 % 0 mm 0 W/m2
04:57 11.2 °C 9.3 °C 1003.6 hPa WNW 22.5 km/h 45.1 km/h 88 % 0 mm 0 W/m2
05:02 11.2 °C 9.3 °C 1003.3 hPa WNW 20.9 km/h 45.1 km/h 88 % 0 mm 0 W/m2
05:07 11.2 °C 9.1 °C 1003.3 hPa WNW 20.9 km/h 40.2 km/h 87 % 0 mm 0 W/m2
05:12 11.3 °C 9.2 °C 1003.3 hPa WNW 24.1 km/h 43.5 km/h 87 % 0 mm 0 W/m2
05:17 11.3 °C 9.2 °C 1003.6 hPa WNW 22.5 km/h 43.5 km/h 87 % 0 mm 0 W/m2
05:22 11.3 °C 9.2 °C 1003.6 hPa WNW 20.9 km/h 43.5 km/h 87 % 0 mm 0 W/m2
05:32 11.2 °C 9.1 °C 1003.6 hPa WNW 22.5 km/h 37 km/h 87 % 0 mm 0 W/m2
05:37 11.2 °C 9.1 °C 1003.9 hPa WNW 20.9 km/h 40.2 km/h 87 % 0 mm 0 W/m2
05:42 11.2 °C 9.1 °C 1003.9 hPa WNW 20.9 km/h 40.2 km/h 87 % 0 mm 0 W/m2
05:47 11.2 °C 9.1 °C 1003.9 hPa WNW 19.3 km/h 40.2 km/h 87 % 0 mm 0 W/m2
05:52 11.2 °C 9.1 °C 1003.9 hPa WNW 20.9 km/h 37 km/h 87 % 0 mm 0 W/m2
05:57 11.2 °C 9.1 °C 1003.9 hPa WNW 22.5 km/h 37 km/h 87 % 0 mm 0 W/m2
06:02 11.2 °C 9.1 °C 1004.3 hPa WNW 20.9 km/h 38.6 km/h 87 % 0 mm 0 W/m2
06:04 11.2 °C 9.1 °C 1004.3 hPa WNW 19.3 km/h 38.6 km/h 87 % 0 mm 0 W/m2
06:09 11.2 °C 9.1 °C 1004.3 hPa WNW 17.7 km/h 38.6 km/h 87 % 0 mm 0 W/m2
06:14 11.1 °C 9.2 °C 1004.3 hPa WNW 14.5 km/h 30.6 km/h 88 % 0 mm 0 W/m2
06:19 11.1 °C 9.2 °C 1004.3 hPa WNW 17.7 km/h 37 km/h 88 % 0 mm 0 W/m2
06:24 11.1 °C 9.2 °C 1004.6 hPa WNW 19.3 km/h 37 km/h 88 % 0 mm 0 W/m2
06:29 11.1 °C 9.2 °C 1004.6 hPa WNW 19.3 km/h 37 km/h 88 % 0 mm 5 W/m2
06:34 11.1 °C 9.2 °C 1005 hPa WNW 19.3 km/h 37 km/h 88 % 0 mm 7 W/m2
06:39 11.1 °C 9.2 °C 1005 hPa WNW 20.9 km/h 38.6 km/h 88 % 0 mm 7 W/m2
06:40 11.1 °C 9.2 °C 1005 hPa WNW 20.9 km/h 38.6 km/h 88 % 0 mm 7 W/m2
06:45 11.2 °C 9.3 °C 1005 hPa WNW 22.5 km/h 38.6 km/h 88 % 0 mm 7 W/m2
06:50 11.2 °C 9.3 °C 1005 hPa WNW 22.5 km/h 45.1 km/h 88 % 0 mm 16 W/m2
06:55 11.1 °C 9.2 °C 1005 hPa WNW 22.5 km/h 45.1 km/h 88 % 0 mm 14 W/m2
07:00 11.1 °C 9.2 °C 1005 hPa WNW 20.9 km/h 40.2 km/h 88 % 0 mm 14 W/m2
07:05 11.1 °C 9.3 °C 1005 hPa WNW 19.3 km/h 33.8 km/h 89 % 0 mm 16 W/m2
07:10 11.1 °C 9.3 °C 1005 hPa WNW 19.3 km/h 38.6 km/h 89 % 0 mm 16 W/m2
07:15 11.1 °C 9.3 °C 1005 hPa WNW 19.3 km/h 38.6 km/h 89 % 0 mm 25 W/m2
07:20 11.1 °C 9.3 °C 1005.3 hPa WNW 17.7 km/h 35.4 km/h 89 % 0 mm 18 W/m2
07:25 11.1 °C 9.3 °C 1005 hPa WNW 19.3 km/h 35.4 km/h 89 % 0 mm 26 W/m2
07:30 11.1 °C 9.3 °C 1005.3 hPa WNW 19.3 km/h 35.4 km/h 89 % 0 mm 39 W/m2
07:35 11.1 °C 9.3 °C 1005.3 hPa WNW 19.3 km/h 33.8 km/h 89 % 0 mm 60 W/m2
07:40 11.1 °C 9.3 °C 1005.3 hPa WNW 20.9 km/h 35.4 km/h 89 % 0 mm 58 W/m2
07:45 11.1 °C 9.3 °C 1005.3 hPa WNW 20.9 km/h 35.4 km/h 89 % 0 mm 93 W/m2
07:50 11.2 °C 9.4 °C 1005.3 hPa WNW 20.9 km/h 40.2 km/h 89 % 0 mm 65 W/m2
07:55 11.2 °C 9.4 °C 1005 hPa WNW 20.9 km/h 40.2 km/h 89 % 0 mm 121 W/m2
08:00 11.3 °C 9.6 °C 1005 hPa WNW 19.3 km/h 35.4 km/h 89 % 0 mm 137 W/m2
08:05 11.3 °C 9.6 °C 1005 hPa WNW 19.3 km/h 35.4 km/h 89 % 0 mm 148 W/m2
08:10 11.5 °C 9.7 °C 1005.3 hPa WNW 20.9 km/h 35.4 km/h 89 % 0 mm 188 W/m2
08:15 11.7 °C 9.8 °C 1005.3 hPa WNW 20.9 km/h 35.4 km/h 88 % 0 mm 223 W/m2
08:20 11.8 °C 9.9 °C 1005.3 hPa WNW 17.7 km/h 35.4 km/h 88 % 0 mm 176 W/m2
08:25 11.9 °C 10 °C 1005.3 hPa WNW 17.7 km/h 30.6 km/h 88 % 0 mm 204 W/m2
08:30 12 °C 10.1 °C 1005.3 hPa WNW 17.7 km/h 30.6 km/h 88 % 0 mm 239 W/m2
08:35 12.1 °C 10 °C 1005 hPa WNW 19.3 km/h 33.8 km/h 87 % 0 mm 276 W/m2
08:40 12.2 °C 10.1 °C 1005 hPa WNW 17.7 km/h 33.8 km/h 87 % 0 mm 160 W/m2
08:45 12.2 °C 10.1 °C 1005.3 hPa WNW 19.3 km/h 35.4 km/h 87 % 0 mm 232 W/m2
08:50 12.2 °C 10.1 °C 1005.3 hPa WNW 19.3 km/h 35.4 km/h 87 % 0 mm 116 W/m2
08:55 12.2 °C 10.1 °C 1005.6 hPa WNW 17.7 km/h 32.2 km/h 87 % 0 mm 162 W/m2
09:00 12.1 °C 10 °C 1005.6 hPa WNW 19.3 km/h 33.8 km/h 87 % 0 mm 185 W/m2
09:05 12.1 °C 10 °C 1005.6 hPa WNW 17.7 km/h 33.8 km/h 87 % 0 mm 181 W/m2
09:10 12.2 °C 10.1 °C 1005.6 hPa WNW 14.5 km/h 30.6 km/h 87 % 0 mm 132 W/m2
09:15 12.2 °C 10.1 °C 1005.6 hPa WNW 12.9 km/h 29 km/h 87 % 0 mm 128 W/m2
09:20 12.2 °C 10.1 °C 1005.6 hPa WNW 12.9 km/h 29 km/h 87 % 0 mm 114 W/m2
09:25 12.1 °C 9.8 °C 1005.6 hPa WNW 16.1 km/h 32.2 km/h 86 % 0 mm 148 W/m2
09:30 12.1 °C 9.8 °C 1006 hPa WNW 17.7 km/h 32.2 km/h 86 % 0 mm 146 W/m2
09:35 12.1 °C 9.8 °C 1006 hPa WNW 16.1 km/h 25.7 km/h 86 % 0 mm 65 W/m2
09:40 12.1 °C 9.8 °C 1006 hPa WNW 16.1 km/h 33.8 km/h 86 % 0 mm 77 W/m2
09:45 12 °C 9.7 °C 1006 hPa WNW 19.3 km/h 35.4 km/h 86 % 0 mm 67 W/m2
09:50 11.9 °C 9.8 °C 1006 hPa WNW 16.1 km/h 35.4 km/h 87 % 0 mm 62 W/m2
09:55 11.9 °C 9.8 °C 1006 hPa WNW 9.7 km/h 17.7 km/h 87 % 0 mm 95 W/m2
10:00 11.8 °C 9.9 °C 1006 hPa WNW 8 km/h 20.9 km/h 88 % 0 mm 98 W/m2
10:05 11.9 °C 9.8 °C 1006 hPa WNW 11.3 km/h 29 km/h 87 % 0 mm 88 W/m2
10:10 11.9 °C 9.8 °C 1006.3 hPa WNW 14.5 km/h 29 km/h 87 % 0 mm 91 W/m2
10:15 12.1 °C 9.8 °C 1006.3 hPa WNW 16.1 km/h 41.8 km/h 86 % 0 mm 65 W/m2
10:21 12.1 °C 9.7 °C 1006.3 hPa WNW 19.3 km/h 41.8 km/h 85 % 0 mm 70 W/m2
10:26 12.1 °C 9.7 °C 1006.3 hPa WNW 19.3 km/h 35.4 km/h 85 % 0 mm 65 W/m2
10:31 12.2 °C 9.6 °C 1006.3 hPa WNW 14.5 km/h 25.7 km/h 84 % 0 mm 70 W/m2
10:36 12.2 °C 9.6 °C 1006 hPa WNW 11.3 km/h 20.9 km/h 84 % 0 mm 62 W/m2
10:41 12.2 °C 9.6 °C 1006.3 hPa WNW 14.5 km/h 37 km/h 84 % 0 mm 79 W/m2
10:46 12.3 °C 9.7 °C 1006.7 hPa West 19.3 km/h 37 km/h 84 % 0 mm 188 W/m2
10:51 12.3 °C 9.5 °C 1006.3 hPa West 17.7 km/h 33.8 km/h 83 % 0 mm 93 W/m2
10:56 12.4 °C 9.6 °C 1006.7 hPa WNW 19.3 km/h 33.8 km/h 83 % 0 mm 97 W/m2
11:01 12.4 °C 9.4 °C 1007 hPa WNW 19.3 km/h 33.8 km/h 82 % 0 mm 120 W/m2
11:06 12.5 °C 9.5 °C 1007 hPa WNW 19.3 km/h 38.6 km/h 82 % 0 mm 130 W/m2
11:11 12.6 °C 9.6 °C 1007 hPa WNW 20.9 km/h 38.6 km/h 82 % 0 mm 134 W/m2
11:16 12.6 °C 9.6 °C 1007.3 hPa WNW 20.9 km/h 38.6 km/h 82 % 0 mm 91 W/m2
11:21 12.6 °C 9.9 °C 1007 hPa WNW 20.9 km/h 38.6 km/h 84 % 0 mm 214 W/m2
11:26 12.5 °C 9.9 °C 1007 hPa WNW 20.9 km/h 35.4 km/h 84 % 0 mm 183 W/m2
11:31 12.4 °C 9.9 °C 1007.3 hPa WNW 20.9 km/h 35.4 km/h 85 % 0 mm 128 W/m2
11:36 12.3 °C 10.2 °C 1007.3 hPa West 19.3 km/h 35.4 km/h 87 % 0 mm 169 W/m2
11:41 12.2 °C 10.3 °C 1007.3 hPa West 16.1 km/h 29 km/h 88 % 0 mm 200 W/m2
11:46 12.2 °C 10.4 °C 1007.3 hPa West 16.1 km/h 29 km/h 89 % 0 mm 156 W/m2
11:51 12.2 °C 10.4 °C 1007.3 hPa WNW 16.1 km/h 33.8 km/h 89 % 0 mm 137 W/m2
11:56 12.1 °C 10.3 °C 1007.3 hPa WNW 17.7 km/h 33.8 km/h 89 % 0 mm 190 W/m2
12:01 12.1 °C 10.5 °C 1007.3 hPa WNW 16.1 km/h 24.1 km/h 90 % 0 mm 227 W/m2
12:06 12.2 °C 10.6 °C 1007.3 hPa WNW 14.5 km/h 24.1 km/h 90 % 0 mm 297 W/m2
12:11 12.3 °C 10.7 °C 1007.3 hPa WNW 14.5 km/h 24.1 km/h 90 % 0 mm 130 W/m2
12:16 12.2 °C 10.4 °C 1007.3 hPa WNW 16.1 km/h 33.8 km/h 89 % 0 mm 67 W/m2
12:21 12.1 °C 10.3 °C 1007.3 hPa WNW 17.7 km/h 33.8 km/h 89 % 0 mm 90 W/m2
12:26 12 °C 10.4 °C 1007.3 hPa WNW 17.7 km/h 33.8 km/h 90 % 0.25 mm 132 W/m2
12:31 11.9 °C 10.3 °C 1007.7 hPa WNW 14.5 km/h 24.1 km/h 90 % 0.25 mm 72 W/m2
12:36 11.9 °C 10.5 °C 1007.7 hPa WNW 12.9 km/h 22.5 km/h 91 % 0.51 mm 100 W/m2
12:41 11.8 °C 10.4 °C 1007.3 hPa WNW 14.5 km/h 25.7 km/h 91 % 0.51 mm 207 W/m2
12:46 11.8 °C 10.6 °C 1007.3 hPa WNW 12.9 km/h 25.7 km/h 92 % 0.51 mm 174 W/m2
12:51 11.9 °C 10.7 °C 1007.3 hPa WNW 11.3 km/h 24.1 km/h 92 % 0.51 mm 190 W/m2
12:56 11.9 °C 10.7 °C 1007.3 hPa WNW 14.5 km/h 25.7 km/h 92 % 0.51 mm 315 W/m2
13:01 12.1 °C 10.8 °C 1007 hPa WNW 14.5 km/h 25.7 km/h 92 % 0.51 mm 234 W/m2
13:06 12.2 °C 10.9 °C 1007 hPa WNW 16.1 km/h 32.2 km/h 92 % 0.51 mm 250 W/m2
13:11 12.2 °C 10.8 °C 1007 hPa WNW 16.1 km/h 32.2 km/h 91 % 0.51 mm 234 W/m2
13:16 12.3 °C 10.9 °C 1007.3 hPa WNW 17.7 km/h 33.8 km/h 91 % 0.51 mm 186 W/m2
13:22 12.3 °C 10.7 °C 1007.3 hPa WNW 20.9 km/h 33.8 km/h 90 % 0.25 mm 207 W/m2
13:27 12.3 °C 10.7 °C 1007.3 hPa WNW 19.3 km/h 32.2 km/h 90 % 0.25 mm 162 W/m2
13:32 12.3 °C 10.6 °C 1007 hPa WNW 17.7 km/h 32.2 km/h 89 % 0.25 mm 134 W/m2
13:37 12.3 °C 10.6 °C 1007 hPa West 17.7 km/h 32.2 km/h 89 % 0 mm 244 W/m2
13:42 12.4 °C 10.4 °C 1007 hPa West 17.7 km/h 32.2 km/h 88 % 0 mm 241 W/m2
13:47 12.5 °C 10.6 °C 1006.7 hPa West 17.7 km/h 32.2 km/h 88 % 0 mm 169 W/m2
13:52 12.6 °C 10.5 °C 1007 hPa WNW 19.3 km/h 35.4 km/h 87 % 0 mm 114 W/m2
13:57 12.5 °C 10.4 °C 1006.7 hPa WNW 17.7 km/h 35.4 km/h 87 % 0 mm 250 W/m2
14:02 12.6 °C 10.5 °C 1006.7 hPa West 16.1 km/h 33.8 km/h 87 % 0 mm 446 W/m2
14:07 12.9 °C 10.8 °C 1006.7 hPa WNW 17.7 km/h 33.8 km/h 87 % 0 mm 374 W/m2
14:12 13.1 °C 10.8 °C 1006.7 hPa WNW 17.7 km/h 33.8 km/h 86 % 0 mm 241 W/m2
14:17 13.1 °C 10.6 °C 1006.7 hPa West 19.3 km/h 35.4 km/h 85 % 0 mm 294 W/m2
14:22 13.1 °C 10.6 °C 1006.7 hPa West 19.3 km/h 35.4 km/h 85 % 0 mm 176 W/m2
14:27 13 °C 10.3 °C 1006.7 hPa WNW 19.3 km/h 32.2 km/h 84 % 0 mm 118 W/m2
14:32 12.8 °C 10.2 °C 1006.7 hPa West 20.9 km/h 37 km/h 84 % 0 mm 207 W/m2
14:37 12.7 °C 10.2 °C 1006.7 hPa West 19.3 km/h 37 km/h 85 % 0 mm 258 W/m2
14:42 12.7 °C 10.2 °C 1007 hPa West 17.7 km/h 32.2 km/h 85 % 0 mm 118 W/m2
14:47 12.7 °C 10.2 °C 1007 hPa West 19.3 km/h 33.8 km/h 85 % 0 mm 239 W/m2
14:52 12.7 °C 10.4 °C 1007 hPa WNW 16.1 km/h 33.8 km/h 86 % 0 mm 134 W/m2
14:57 12.7 °C 10.2 °C 1007 hPa WNW 12.9 km/h 29 km/h 85 % 0 mm 90 W/m2
15:02 12.7 °C 10.1 °C 1007 hPa WNW 17.7 km/h 30.6 km/h 84 % 0 mm 125 W/m2
15:07 12.6 °C 9.9 °C 1006.7 hPa WNW 17.7 km/h 30.6 km/h 84 % 0 mm 128 W/m2
15:12 12.6 °C 9.9 °C 1006.7 hPa WNW 16.1 km/h 35.4 km/h 84 % 0 mm 144 W/m2
15:17 12.6 °C 9.6 °C 1006.7 hPa WNW 17.7 km/h 37 km/h 82 % 0 mm 165 W/m2
15:22 12.6 °C 9.8 °C 1006.7 hPa WNW 19.3 km/h 37 km/h 83 % 0 mm 141 W/m2
15:27 12.4 °C 9.8 °C 1007 hPa WNW 19.3 km/h 32.2 km/h 84 % 0 mm 181 W/m2
15:32 12.3 °C 9.7 °C 1006.7 hPa WNW 20.9 km/h 33.8 km/h 84 % 0 mm 199 W/m2
15:37 12.3 °C 9.8 °C 1006.7 hPa WNW 17.7 km/h 33.8 km/h 85 % 0 mm 148 W/m2
15:42 12.2 °C 9.8 °C 1006.7 hPa WNW 16.1 km/h 30.6 km/h 85 % 0 mm 67 W/m2
15:47 12.1 °C 9.8 °C 1006.7 hPa WNW 12.9 km/h 30.6 km/h 86 % 0 mm 88 W/m2
15:52 11.9 °C 9.8 °C 1006.7 hPa WNW 9.7 km/h 20.9 km/h 87 % 0 mm 46 W/m2
15:57 11.8 °C 9.9 °C 1006.7 hPa WNW 9.7 km/h 14.5 km/h 88 % 0 mm 28 W/m2
16:02 11.7 °C 9.8 °C 1006.7 hPa WNW 9.7 km/h 16.1 km/h 88 % 0 mm 70 W/m2
16:07 11.6 °C 9.8 °C 1006.7 hPa WNW 8 km/h 16.1 km/h 89 % 0 mm 54 W/m2
16:12 11.6 °C 10 °C 1006.3 hPa WNW 8 km/h 14.5 km/h 90 % 0 mm 74 W/m2
16:17 11.6 °C 10 °C 1006.7 hPa WNW 6.4 km/h 14.5 km/h 90 % 0 mm 37 W/m2
16:22 11.6 °C 10 °C 1006.7 hPa WNW 4.8 km/h 11.3 km/h 90 % 0 mm 28 W/m2
16:27 11.6 °C 10.2 °C 1006.7 hPa WNW 3.2 km/h 11.3 km/h 91 % 0 mm 26 W/m2
16:32 11.6 °C 10.2 °C 1007 hPa WNW 3.2 km/h 9.7 km/h 91 % 0 mm 30 W/m2
16:34 11.6 °C 10.2 °C 1007 hPa WNW 3.2 km/h 12.9 km/h 91 % 0 mm 30 W/m2
16:41 11.7 °C 10.3 °C 1006.7 hPa West 9.7 km/h 12.9 km/h 91 % 0 mm 35 W/m2
16:46 11.7 °C 10.1 °C 1006.7 hPa West 11.3 km/h 24.1 km/h 90 % 0 mm 74 W/m2
16:51 11.8 °C 10.2 °C 1006.7 hPa West 12.9 km/h 25.7 km/h 90 % 0 mm 81 W/m2
16:56 11.9 °C 10.2 °C 1006.7 hPa West 12.9 km/h 25.7 km/h 89 % 0 mm 123 W/m2
17:01 12 °C 10.2 °C 1006.3 hPa West 12.9 km/h 25.7 km/h 89 % 0 mm 107 W/m2
17:06 12.1 °C 10.2 °C 1006.7 hPa West 12.9 km/h 30.6 km/h 88 % 0 mm 83 W/m2
17:11 12.1 °C 10.2 °C 1006.7 hPa West 16.1 km/h 30.6 km/h 88 % 0 mm 91 W/m2
17:16 12.1 °C 10.2 °C 1007 hPa West 16.1 km/h 25.7 km/h 88 % 0 mm 98 W/m2
17:21 12.1 °C 10.2 °C 1007 hPa West 14.5 km/h 22.5 km/h 88 % 0 mm 104 W/m2
17:26 12.1 °C 10.2 °C 1006.7 hPa West 12.9 km/h 22.5 km/h 88 % 0 mm 58 W/m2
17:31 12.1 °C 10.2 °C 1007 hPa West 11.3 km/h 19.3 km/h 88 % 0 mm 51 W/m2
17:36 12.1 °C 10.2 °C 1007 hPa West 9.7 km/h 16.1 km/h 88 % 0 mm 51 W/m2
17:41 12.1 °C 10.2 °C 1007 hPa West 9.7 km/h 14.5 km/h 88 % 0 mm 30 W/m2
17:46 12 °C 10.1 °C 1007 hPa West 11.3 km/h 20.9 km/h 88 % 0 mm 12 W/m2
17:51 12 °C 9.9 °C 1007 hPa West 12.9 km/h 20.9 km/h 87 % 0 mm 9 W/m2
17:52 12 °C 9.9 °C 1007 hPa West 12.9 km/h 20.9 km/h 87 % 0 mm 7 W/m2
17:57 11.9 °C 10 °C 1007 hPa West 11.3 km/h 20.9 km/h 88 % 0 mm 5 W/m2
18:02 11.9 °C 10 °C 1007 hPa West 12.9 km/h 20.9 km/h 88 % 0 mm 0 W/m2
18:07 11.8 °C 9.9 °C 1007 hPa West 9.7 km/h 20.9 km/h 88 % 0 mm 0 W/m2
18:12 11.8 °C 9.9 °C 1007.3 hPa West 9.7 km/h 16.1 km/h 88 % 0 mm 0 W/m2
18:17 11.8 °C 10.1 °C 1007.3 hPa West 9.7 km/h 16.1 km/h 89 % 0 mm 0 W/m2
18:22 11.8 °C 10.1 °C 1007 hPa West 8 km/h 16.1 km/h 89 % 0 mm 0 W/m2
18:27 11.8 °C 10.1 °C 1007 hPa WSW 9.7 km/h 17.7 km/h 89 % 0 mm 0 W/m2
18:32 11.7 °C 9.9 °C 1007 hPa WSW 9.7 km/h 17.7 km/h 89 % 0 mm 0 W/m2
18:37 11.7 °C 9.9 °C 1007 hPa WSW 8 km/h 16.1 km/h 89 % 0 mm 0 W/m2
18:42 11.7 °C 10.1 °C 1007 hPa WSW 8 km/h 22.5 km/h 90 % 0 mm 0 W/m2
18:52 11.7 °C 10.1 °C 1007 hPa West 11.3 km/h 17.7 km/h 90 % 0 mm 0 W/m2
18:57 11.7 °C 10.1 °C 1007 hPa West 11.3 km/h 22.5 km/h 90 % 0 mm 0 W/m2
19:02 11.8 °C 10.1 °C 1007 hPa West 11.3 km/h 24.1 km/h 89 % 0 mm 0 W/m2
19:07 11.8 °C 10.1 °C 1007 hPa West 11.3 km/h 24.1 km/h 89 % 0 mm 0 W/m2
19:12 11.8 °C 10.1 °C 1007 hPa West 11.3 km/h 19.3 km/h 89 % 0 mm 0 W/m2
19:17 11.8 °C 10.1 °C 1007 hPa West 11.3 km/h 22.5 km/h 89 % 0 mm 0 W/m2
19:22 11.9 °C 10.2 °C 1007 hPa West 12.9 km/h 22.5 km/h 89 % 0 mm 0 W/m2
19:27 11.9 °C 10.2 °C 1007 hPa West 9.7 km/h 20.9 km/h 89 % 0 mm 0 W/m2
19:32 11.9 °C 10.2 °C 1007 hPa West 12.9 km/h 25.7 km/h 89 % 0 mm 0 W/m2
19:37 11.9 °C 10.2 °C 1007 hPa West 14.5 km/h 25.7 km/h 89 % 0 mm 0 W/m2
19:42 11.9 °C 10.2 °C 1007 hPa West 14.5 km/h 24.1 km/h 89 % 0 mm 0 W/m2
19:47 11.9 °C 10.2 °C 1007 hPa West 14.5 km/h 24.1 km/h 89 % 0 mm 0 W/m2
19:52 11.9 °C 10.3 °C 1007 hPa WSW 14.5 km/h 24.1 km/h 90 % 0 mm 0 W/m2
19:57 11.9 °C 10.3 °C 1007 hPa WSW 14.5 km/h 29 km/h 90 % 0 mm 0 W/m2
20:02 11.9 °C 10.3 °C 1007 hPa WSW 12.9 km/h 29 km/h 90 % 0 mm 0 W/m2
20:07 11.9 °C 10.3 °C 1007 hPa West 12.9 km/h 22.5 km/h 90 % 0 mm 0 W/m2
20:12 11.8 °C 10.2 °C 1007 hPa West 14.5 km/h 24.1 km/h 90 % 0 mm 0 W/m2
20:17 11.8 °C 10.2 °C 1007 hPa West 14.5 km/h 24.1 km/h 90 % 0 mm 0 W/m2
20:22 11.8 °C 10.2 °C 1007 hPa West 16.1 km/h 29 km/h 90 % 0 mm 0 W/m2
20:27 11.8 °C 10.4 °C 1007 hPa West 17.7 km/h 32.2 km/h 91 % 0 mm 0 W/m2
20:32 11.8 °C 10.4 °C 1006.7 hPa West 17.7 km/h 32.2 km/h 91 % 0 mm 0 W/m2
20:38 11.7 °C 10.3 °C 1006.7 hPa West 16.1 km/h 29 km/h 91 % 0 mm 0 W/m2
20:43 11.7 °C 10.3 °C 1006.7 hPa West 16.1 km/h 29 km/h 91 % 0 mm 0 W/m2
20:48 11.7 °C 10.3 °C 1007 hPa West 16.1 km/h 32.2 km/h 91 % 0 mm 0 W/m2
20:53 11.7 °C 10.3 °C 1006.7 hPa West 16.1 km/h 32.2 km/h 91 % 0 mm 0 W/m2
20:58 11.7 °C 10.3 °C 1006.7 hPa West 16.1 km/h 25.7 km/h 91 % 0 mm 0 W/m2
21:03 11.7 °C 10.3 °C 1006.3 hPa West 14.5 km/h 25.7 km/h 91 % 0 mm 0 W/m2
21:08 11.7 °C 10.3 °C 1006.3 hPa West 12.9 km/h 22.5 km/h 91 % 0 mm 0 W/m2
21:13 11.8 °C 10.4 °C 1006.3 hPa West 12.9 km/h 20.9 km/h 91 % 0 mm 0 W/m2
21:18 11.8 °C 10.4 °C 1006.3 hPa West 12.9 km/h 22.5 km/h 91 % 0 mm 0 W/m2
21:23 11.8 °C 10.4 °C 1006.3 hPa West 12.9 km/h 25.7 km/h 91 % 0 mm 0 W/m2
21:28 11.8 °C 10.4 °C 1006.3 hPa West 14.5 km/h 29 km/h 91 % 0 mm 0 W/m2
21:33 11.9 °C 10.5 °C 1006 hPa West 14.5 km/h 29 km/h 91 % 0 mm 0 W/m2
21:38 11.9 °C 10.3 °C 1006 hPa West 14.5 km/h 22.5 km/h 90 % 0 mm 0 W/m2
21:43 11.9 °C 10.3 °C 1006.3 hPa West 12.9 km/h 20.9 km/h 90 % 0 mm 0 W/m2
21:48 11.9 °C 10.3 °C 1006.3 hPa West 12.9 km/h 29 km/h 90 % 0 mm 0 W/m2
21:53 11.9 °C 10.5 °C 1006 hPa West 14.5 km/h 29 km/h 91 % 0 mm 0 W/m2
21:58 11.9 °C 10.5 °C 1006 hPa West 14.5 km/h 25.7 km/h 91 % 0 mm 0 W/m2
22:03 11.9 °C 10.5 °C 1006 hPa West 14.5 km/h 24.1 km/h 91 % 0 mm 0 W/m2
22:08 11.9 °C 10.5 °C 1006 hPa West 14.5 km/h 25.7 km/h 91 % 0 mm 0 W/m2
22:13 11.9 °C 10.7 °C 1006 hPa WSW 14.5 km/h 25.7 km/h 92 % 0 mm 0 W/m2
22:18 11.8 °C 10.6 °C 1006 hPa WSW 14.5 km/h 25.7 km/h 92 % 0 mm 0 W/m2
22:23 11.8 °C 10.6 °C 1005.6 hPa West 14.5 km/h 25.7 km/h 92 % 0 mm 0 W/m2
22:28 11.8 °C 10.6 °C 1005.6 hPa WSW 14.5 km/h 24.1 km/h 92 % 0 mm 0 W/m2
22:33 11.8 °C 10.6 °C 1005.6 hPa WSW 14.5 km/h 24.1 km/h 92 % 0 mm 0 W/m2
22:38 11.8 °C 10.7 °C 1005.6 hPa WSW 14.5 km/h 25.7 km/h 93 % 0 mm 0 W/m2
22:43 11.8 °C 10.7 °C 1005.6 hPa WSW 16.1 km/h 25.7 km/h 93 % 0 mm 0 W/m2
22:48 11.7 °C 10.6 °C 1005.3 hPa WSW 16.1 km/h 24.1 km/h 93 % 0 mm 0 W/m2
22:53 11.7 °C 10.6 °C 1005.3 hPa WSW 14.5 km/h 24.1 km/h 93 % 0 mm 0 W/m2
22:58 11.7 °C 10.6 °C 1005.3 hPa WSW 14.5 km/h 22.5 km/h 93 % 0 mm 0 W/m2
23:04 11.7 °C 10.6 °C 1005.3 hPa WSW 12.9 km/h 22.5 km/h 93 % 0 mm 0 W/m2
23:09 11.6 °C 10.5 °C 1005.6 hPa WSW 12.9 km/h 20.9 km/h 93 % 0 mm 0 W/m2
23:14 11.7 °C 10.6 °C 1005.3 hPa WSW 14.5 km/h 30.6 km/h 93 % 0 mm 0 W/m2
23:19 11.7 °C 10.6 °C 1005.3 hPa WSW 16.1 km/h 30.6 km/h 93 % 0 mm 0 W/m2
23:24 11.8 °C 10.7 °C 1005.3 hPa WSW 17.7 km/h 30.6 km/h 93 % 0 mm 0 W/m2
23:29 11.9 °C 10.8 °C 1005.3 hPa WSW 17.7 km/h 32.2 km/h 93 % 0 mm 0 W/m2
23:34 11.9 °C 10.7 °C 1005.3 hPa WSW 17.7 km/h 32.2 km/h 92 % 0 mm 0 W/m2
23:39 12 °C 10.7 °C 1005.3 hPa WSW 17.7 km/h 33.8 km/h 92 % 0 mm 0 W/m2
23:44 12.1 °C 10.8 °C 1005 hPa WSW 19.3 km/h 33.8 km/h 92 % 0 mm 0 W/m2
23:49 12.2 °C 10.8 °C 1005 hPa WSW 20.9 km/h 33.8 km/h 91 % 0 mm 0 W/m2
23:54 12.2 °C 10.8 °C 1005 hPa WSW 20.9 km/h 37 km/h 91 % 0 mm 0 W/m2
23:59 12.3 °C 10.9 °C 1005 hPa WSW 20.9 km/h 37 km/h 91 % 0 mm 0 W/m2
Delerius-Weather
Compliments of Weather Underground - 2.25 mb

Data updates at regular intervals.